Вернуться в каталог

STARLINK-4012

АктивенСвязьVLEO
NORAD 52602·PAYLOAD·🇺🇸 United States

Запущен May 14, 2022 с Cape Canaveral Space Force Station

Loading…

Ближайшие Пролёты (ближайшие 24 часа)

TLE

СвежийSource: CelesTrak SupGP

Эпоха: Sep 15, 2026, 02:51 UTC

1 52602C 22052E   26258.11923611  .00053985  00000+0  15449-2 0  2585
2 52602  53.1601 140.7561 0001303  79.3021 151.1823 15.35365308    17

Отслеживайте STARLINK-4012 в реальном времени с AllMySat

Download on the App Store